Terminal Aerodrome Forecast
Issued by NWS La Crosse, WI

Home | Current Version | Previous Version | Text Only | Print | Product List | Glossary On
Versions: 1 2 3 4 5 6 7 8 9 10 11 12 13 14 15 16 17 18 19 20 21 22 23 24 25 26 27 28 29 30 31 32 33 34 35 36 37 38 39 40 41 42 43 44 45 46 47 48 49 50
000
FTUS43 KARX 311230 AAB
TAFLSE
TAF AMD
KLSE 311230Z 3113/0112 17007KT 5SM BR OVC009
     FM311600 18009KT P6SM SCT015
     FM010900 16006KT 5SM BR SCT015=

USA.gov is the U.S. government's official web portal to all federal, state and local government web resources and services.